カタログに戻る

USA 271

運用中ナビゲーションGEO
NORAD 41745·PAYLOAD·🇺🇸 United States

打ち上げ Aug 19, 2016 から Cape Canaveral Space Force Station

Loading…

TLE

最新Source: Space-Track

元期: Sep 12, 2026, 15:53 UTC

1 41745U 16052B   26255.66193895  .00000074  00000-0  00000+0 0  9992
2 41745   4.3889  76.0998 0002659 171.2472  40.0508  0.99059437 28799

AllMySatでUSA 271をリアルタイム追跡

Download on the App Store